Location: Newark
(34.0131°N, 4.3314°W)
Time: 05:03:09
(UTC+00:00)

S-56A Canister/Altair - All Passes

Search period start: 17 October 2019 00:00
Search period end: 27 October 2019 00:00
Orbit: 633 x 2499 km, 38.9° (Epoch: 15 October)

Date Brightness Start Highest point End Pass type
(mag) Time Alt. Az. Time Alt. Az. Time Alt. Az.
17 Oct - 01:40:03 10° S 01:44:36 25° SE 01:50:38 10° E visible
17 Oct - 03:41:27 10° WSW 03:47:58 88° SSE 03:58:10 10° ENE visible
17 Oct - 05:45:16 10° W 05:53:35 67° N 06:06:13 10° E visible
17 Oct - 07:49:34 10° WNW 08:00:08 85° NNE 08:14:51 10° ESE daylight
17 Oct - 09:54:28 10° WNW 10:06:31 54° SW 10:21:00 10° SE daylight
17 Oct - 12:02:50 10° W 12:11:58 20° SW 12:21:29 10° S daylight
18 Oct - 01:08:18 10° S 01:12:07 20° SE 01:16:51 10° E visible
18 Oct - 03:09:05 10° WSW 03:15:09 80° SSE 03:24:31 10° ENE visible
18 Oct - 05:12:41 10° W 05:20:24 66° N 05:32:16 10° E visible
18 Oct - 07:16:50 10° WNW 07:26:43 81° NNE 07:40:58 10° ESE daylight
18 Oct - 09:21:26 10° WNW 09:33:02 59° SSW 09:47:39 10° SE daylight
18 Oct - 11:28:51 10° W 11:38:39 23° SW 11:49:12 10° S daylight
19 Oct - 00:36:52 10° SSE 00:39:40 14° SE 00:42:53 10° E night (unlit)
19 Oct - 02:36:45 10° SW 02:42:24 71° SSE 02:50:57 10° ENE visible
19 Oct - 04:40:09 10° W 04:47:17 66° N 04:58:23 10° ENE visible
19 Oct - 06:44:10 10° WNW 06:53:22 77° NNE 07:07:01 10° ESE daylight
19 Oct - 08:48:30 10° WNW 08:59:35 64° SSW 09:14:11 10° SE daylight
19 Oct - 10:55:09 10° W 11:05:19 27° SW 11:16:40 10° S daylight
20 Oct - 00:06:44 10° SE 00:07:13 10° SE 00:07:43 10° SE night (unlit)
20 Oct - 02:04:28 10° SW 02:09:45 61° SSE 02:17:28 10° ENE visible
20 Oct - 04:07:38 10° W 04:14:16 67° N 04:24:34 10° ENE visible
20 Oct - 06:11:34 10° WNW 06:20:07 73° NNE 06:33:04 10° E daylight
20 Oct - 08:15:41 10° WNW 08:26:11 68° SSW 08:40:36 10° SE daylight
20 Oct - 10:21:40 10° W 10:31:58 30° SW 10:43:54 10° S daylight
21 Oct - 01:32:14 10° SW 01:37:09 51° SSE 01:44:04 10° ENE visible
21 Oct - 03:35:11 10° W 03:41:20 68° N 03:50:50 10° ENE visible
21 Oct - 05:38:59 10° WNW 05:46:56 70° NNE 05:59:07 10° E visible
21 Oct - 07:42:55 10° WNW 07:52:49 73° SSW 08:06:56 10° SE daylight
21 Oct - 09:48:23 10° W 09:58:36 33° SW 10:10:58 10° SSE daylight
22 Oct - 01:00:04 10° SW 01:04:37 42° SE 01:10:44 10° ENE visible
22 Oct - 03:02:44 10° W 03:08:29 70° NNW 03:17:14 10° ENE visible
22 Oct - 05:06:28 10° WNW 05:13:49 67° N 05:25:11 10° E visible
22 Oct - 07:10:15 10° WNW 07:19:33 78° SSW 07:33:13 10° ESE daylight
22 Oct - 09:15:14 10° W 09:25:16 36° SW 09:37:54 10° SSE daylight
23 Oct - 00:27:56 10° SSW 00:32:08 33° SE 00:37:27 10° E night (unlit)
23 Oct - 02:30:19 10° W 02:35:41 74° NNW 02:43:43 10° ENE visible
23 Oct - 04:33:59 10° WNW 04:40:47 64° N 04:51:18 10° E visible
23 Oct - 06:37:38 10° WNW 06:46:19 83° SSW 06:59:26 10° ESE daylight
23 Oct - 08:42:14 10° W 08:51:57 40° SW 09:04:41 10° SSE daylight
23 Oct - 10:53:42 10° WSW 10:57:20 11° SW 11:01:08 10° SSW daylight
23 Oct - 23:55:52 10° SSW 23:59:40 26° SE 00:04:12 10° E night (unlit)
24 Oct - 01:57:54 10° WSW 02:02:59 79° NNW 02:10:19 10° ENE visible
24 Oct - 04:01:31 10° WNW 04:07:49 61° N 04:17:29 10° E visible
24 Oct - 06:05:05 10° WNW 06:13:10 88° SSW 06:25:38 10° ESE visible
24 Oct - 08:09:20 10° WNW 08:18:41 43° SW 08:31:23 10° SSE daylight
24 Oct - 10:18:40 10° WSW 10:24:06 14° SW 10:30:02 10° SSW daylight
24 Oct - 23:23:53 10° S 23:27:13 20° SE 23:30:57 10° E night (unlit)
25 Oct - 01:25:31 10° WSW 01:30:20 87° NNW 01:37:03 10° ENE visible
25 Oct - 03:29:05 10° WNW 03:34:56 59° N 03:43:46 10° E visible
25 Oct - 05:32:35 10° WNW 05:40:06 86° NNE 05:51:48 10° ESE visible
25 Oct - 07:36:33 10° WNW 07:45:27 47° SSW 07:57:58 10° SE daylight
25 Oct - 09:44:30 10° WSW 09:50:52 16° SW 09:58:05 10° SSW daylight
25 Oct - 22:52:02 10° S 22:54:46 16° SE 22:57:39 10° E night (unlit)
26 Oct - 00:53:07 10° WSW 00:57:44 84° SSE 01:03:52 10° ENE night (unlit)
26 Oct - 02:56:39 10° W 03:02:06 57° N 03:10:10 10° ENE visible
26 Oct - 05:00:06 10° WNW 05:07:06 81° NNE 05:18:00 10° ESE visible
26 Oct - 07:03:51 10° WNW 07:12:16 50° SSW 07:24:30 10° SE daylight
26 Oct - 09:10:47 10° W 09:17:39 18° SW 09:25:43 10° S daylight
26 Oct - 22:20:30 10° SSE 22:22:17 12° SE 22:24:05 10° ESE night (unlit)
